SCP
0 0 0 0 0 0 -0 0 0 0 0 0 0 0 0 0 0 0 1 1 2 3 3 3 3 4 5 6 8 7 6 4 3 3 2 2 1 1 1 1 1 1 0 0
0 0 0 0 0 0 0 0 0 0 0 0 0 0 0 0 0 1 1 2 2 3 4 4 4 4 5 6 7 6 5 4 3 2 2 1 1 1 1 1 1 1 0 0
0 0 0 0 0 0 0 0 0 0 0 0 -0 0 0 0 1 1 2 2 2 3 3 4 4 4 4 5 5 5 4 3 2 2 2 1 1 1 1 1 1 1 1 0
0 0 0 0 0 0 0 0 0 0 0 -0 -0 0 0 1 1 1 1 2 2 2 3 3 3 3 3 4 4 4 3 3 2 2 2 2 1 1 1 1 1 1 1 1
0 0 0 0 0 -0 -0 0 0 0 0 0 0 0 0 1 1 1 1 1 2 2 2 2 2 2 2 2 3 3 3 3 3 2 2 2 2 2 2 2 2 1 1 1
0 0 0 0 0 -0 0 -0 0 0 0 0 0 0 0 1 1 1 1 1 2 2 1 1 2 2 2 2 2 2 3 3 3 3 3 3 3 3 2 2 2 2 1 1
0 0 0 0 0 0 0 -0 0 0 0 0 0 0 0 1 1 1 1 1 1 1 1 1 1 1 1 1 2 2 3 3 3 3 3 4 3 3 3 3 2 2 2 1
0 0 0 0 0 0 0 -0 -0 0 0 0 0 0 1 1 1 1 1 1 1 1 1 1 1 1 1 1 1 2 2 3 3 3 3 4 4 3 3 3 3 2 2 2
0 0 0 0 0 0 0 0 -0 0 0 0 0 0 1 1 1 1 1 0 0 0 0 0 0 0 0 0 0 1 1 1 2 2 2 3 3 3 3 3 3 3 2 2
-0 -0 -0 0 0 0 0 0 0 0 0 0 0 0 1 1 1 0 0 0 0 0 0 0 0 0 0 0 0 0 0 0 0 1 1 1 1 1 2 2 2 2 2 2
-0 -0 0 0 0 0 0 0 0 0 0 0 0 0 1 1 1 0 0 0 0 0 0 0 0 0 0 0 0 0 0 0 0 0 0 0 0 0 1 1 1 1 1 1
0 -0 0 0 0 0 0 0 0 0 0 0 0 0 1 1 1 0 0 0 0 0 0 0 0 0 0 0 0 0 0 0 0 0 0 0 0 0 0 0 0 0 0 1
0 0 0 0 0 0 0 0 0 0 0 0 0 0 1 1 0 0 0 0 0 0 0 0 0 0 0 0 0 0 0 0 0 0 0 0 0 0 0 0 0 0 0 0
0 0 0 0 0 0 0 0 0 0 0 0 0 0 0 0 0 0 0 0 0 0 0 0 0 0 0 0 0 0 0 0 0 0 0 0 0 0 0 0 0 0 0 0
0 0 0 0 0 0 0 0 0 0 0 0 0 0 0 0 0 0 0 0 0 0 0 0 0 0 0 0 0 0 0 0 0 0 0 0 0 0 0 0 0 0 0 0
0 0 0 0 0 0 0 0 0 0 0 0 0 0 0 0 0 0 0 0 0 0 0 0 0 0 0 0 0 0 0 0 0 0 0 0 0 0 0 0 0 0 0 0
0 0 0 0 0 0 0 0 0 0 0 0 0 0 0 0 0 0 0 0 0 0 0 0 0 0 0 0 0 0 0 0 0 0 0 0 0 0 0 0 0 0 0 0
0 0 0 0 0 0 0 0 0 0 0 0 0 0 0 0 0 0 0 0 0 0 0 0 0 0 0 0 0 0 0 0 0 0 0 0 0 0 0 0 0 0 0 0
0 0 0 0 0 0 0 0 0 0 0 0 0 0 0 0 0 0 0 0 0 0 0 0 0 0 0 0 0 0 0 0 0 0 0 0 0 0 0 0 0 0 0 0
0 0 0 0 0 0 0 0 0 0 0 0 0 0 0 0 0 0 0 0 0 0 0 0 0 0 0 0 0 0 0 0 0 0 0 0 0 0 0 0 0 0 0 0
0 0 0 0 0 0 0 0 0 0 0 0 0 0 0 0 0 0 0 0 0 0 0 0 0 0 0 0 0 0 0 0 0 0 0 0 0 0 0 0 0 0 0 0
0 0 0 0 0 0 0 0 0 0 0 0 0 0 0 0 0 0 0 0 0 0 0 0 0 0 0 0 0 0 0 0 0 0 0 0 0 0 0 0 0 0 0 0
0 0 0 0 0 0 0 0 0 0 0 0 0 0 0 0 0 0 0 0 0 0 0 0 0 0 0 0 0 0 0 0 0 0 0 0 0 0 0 0 0 0 0 0
0 0 0 0 0 0 0 0 0 0 0 0 0 0 0 0 0 0 0 0 0 0 0 0 0 0 0 0 0 0 0 0 0 0 0 0 0 0 0 0 0 0 0 0
0 0 0 0 0 0 0 0 0 0 0 0 0 0 0 0 0 0 0 0 0 0 0 0 0 0 0 0 0 0 0 0 0 0 0 0 0 0 0 0 0 0 0 0
0 0 0 0 0 0 0 0 0 0 0 0 0 0 0 0 0 0 0 0 0 0 0 0 0 0 0 0 0 0 0 0 0 0 0 0 0 0 0 0 0 0 0 0
Wind_Speed
10 10 8 7 7 10 13 14 13 7 4 1 7 12 8 3 3 5 4 1 3 6 7 6 6 6 8 7 7 7 8 6 4 3 4 3 2 1 1 2 4 3 2 3
7 5 6 6 7 9 10 10 12 9 5 5 9 12 11 9 6 2 1 1 1 4 5 6 3 5 7 8 8 7 7 7 5 3 2 1 2 1 1 2 3 2 2 2
1 1 4 6 6 8 8 8 9 9 8 9 12 14 14 10 3 2 3 4 4 6 5 7 5 4 4 5 6 7 6 6 4 4 2 1 1 1 1 2 2 3 1 1
5 3 5 7 7 8 7 8 10 11 11 12 14 12 10 5 4 6 7 8 9 9 8 8 7 6 6 5 4 3 5 4 4 3 1 1 1 1 0 1 1 2 1 2
6 7 6 6 6 7 8 8 11 14 14 15 13 12 5 7 8 8 8 9 12 11 12 12 10 9 7 6 5 3 3 3 3 1 1 1 2 3 1 1 1 0 3 3
11 9 6 6 6 7 9 11 13 11 9 11 11 9 4 4 8 10 11 12 10 13 14 14 13 13 13 11 8 5 4 3 3 2 2 2 3 4 4 4 3 3 3 3
11 8 5 6 7 5 8 10 8 5 2 5 7 7 1 7 10 12 12 13 14 15 15 15 15 14 14 13 12 11 10 8 6 5 5 4 4 4 4 5 5 4 3 3
4 4 5 5 6 7 8 10 9 10 8 6 11 6 5 10 11 12 13 13 14 14 14 13 14 13 13 13 13 13 12 11 10 9 8 7 7 5 4 5 6 5 5 5
5 5 6 6 7 7 7 9 12 11 13 11 2 7 7 8 8 9 10 11 12 12 12 11 11 11 10 11 11 11 10 9 10 10 9 7 8 7 7 7 6 6 6 7
8 11 11 9 9 6 7 10 7 7 9 12 11 4 4 7 5 4 7 9 9 9 9 9 8 8 7 7 6 7 7 7 7 7 7 7 7 7 7 7 8 7 7 7
11 11 11 8 7 10 10 9 8 7 9 11 13 5 5 7 5 5 8 8 7 8 8 7 6 6 6 6 6 5 5 5 5 5 5 5 5 6 6 5 6 7 7 8
11 10 10 10 7 7 9 8 7 6 8 10 11 5 9 8 8 7 7 6 6 7 7 7 8 7 7 8 8 7 7 7 6 6 6 6 6 6 6 6 6 7 8 8
9 7 10 6 0 4 8 8 7 7 8 10 10 3 5 6 6 5 5 6 6 7 8 8 8 8 8 8 8 8 8 8 8 7 7 6 7 6 7 7 7 7 7 8
4 7 11 14 14 13 10 9 8 7 7 9 10 4 3 3 4 5 7 9 10 10 10 9 8 8 8 8 9 9 9 9 9 8 8 8 9 9 9 9 9 8 8 8
4 9 12 15 17 15 12 10 9 8 9 10 11 7 4 3 6 8 10 11 14 15 14 11 9 8 9 9 9 9 10 9 9 9 9 9 10 10 10 10 10 9 9 10
7 8 13 16 16 13 8 9 9 9 10 11 13 8 4 6 8 11 13 16 18 17 12 10 11 10 9 9 9 9 8 8 8 9 10 9 9 10 10 10 10 10 10 9
8 11 13 14 14 12 5 11 10 10 10 11 13 10 10 10 12 14 16 19 17 12 13 13 13 11 9 10 8 9 8 8 8 9 9 9 9 10 10 11 10 9 9 9
5 8 7 12 12 7 8 8 9 10 10 13 11 10 12 14 16 17 17 14 15 17 18 16 14 13 12 10 9 9 11 9 9 9 10 10 9 10 9 9 9 8 7 8
1 4 7 7 11 3 6 7 9 11 12 11 11 14 17 19 19 16 15 18 18 18 16 14 15 16 12 12 11 11 11 12 12 12 10 10 9 9 9 9 8 7 7 7
2 5 8 9 11 9 6 7 9 12 6 11 15 18 19 21 18 15 18 19 18 16 15 15 16 16 13 11 10 11 14 13 12 12 10 10 9 9 10 9 8 8 7 7
8 10 8 9 10 5 7 12 14 11 11 16 17 18 19 18 18 19 21 19 18 16 16 15 14 12 10 11 10 12 13 13 12 11 10 9 9 9 10 9 8 8 8 9
6 7 8 8 9 5 10 12 10 10 12 15 17 19 20 20 21 21 21 19 19 19 18 18 13 11 10 10 11 12 12 11 11 11 11 10 10 12 12 8 7 7 7 8
4 6 5 6 7 6 7 8 9 12 15 16 18 20 20 21 22 22 21 19 19 19 16 15 16 14 11 11 11 13 13 12 12 12 12 11 12 10 10 10 9 9 8 8
5 2 5 6 7 8 9 11 13 15 16 18 19 20 21 22 22 22 20 17 17 17 16 16 16 16 14 12 13 13 13 12 12 13 12 11 11 12 11 8 8 8 8 8
4 4 7 9 10 10 11 14 16 17 18 19 20 20 21 22 22 21 18 16 16 17 16 15 15 16 17 15 14 15 14 13 13 13 12 12 11 11 10 9 8 9 8 7
5 6 5 8 10 11 14 15 17 18 19 19 21 21 21 20 20 20 19 17 17 18 17 17 18 18 18 17 17 16 14 14 13 12 12 10 9 8 8 8 9 11 11 10
Wind_Direction
243 241 276 318 315 305 305 305 309 314 59 19 280 286 288 284 239 262 271 254 185 162 160 140 146 149 140 130 131 136 137 137 151 160 179 181 167 180 172 132 104 90 44 35
257 284 328 332 312 292 282 286 290 296 301 270 269 272 271 261 244 247 352 95 208 128 110 115 114 125 133 134 130 129 139 155 166 137 128 136 128 200 182 101 109 105 70 24
280 335 297 284 286 294 296 304 310 316 316 290 272 263 255 241 215 102 39 37 61 88 108 108 97 83 92 111 136 148 148 153 151 141 178 165 155 234 194 131 141 121 86 284
325 313 300 306 313 309 320 335 323 308 291 280 277 276 260 192 118 69 41 24 37 57 58 62 68 75 80 83 83 101 127 137 138 155 197 228 240 263 182 165 130 115 220 242
294 287 289 298 305 309 309 308 293 286 281 277 280 283 281 119 101 84 76 58 56 58 58 54 48 54 59 69 79 80 111 137 148 163 357 325 299 303 332 19 68 251 250 231
295 292 294 300 297 305 309 296 285 287 306 299 326 318 311 79 106 98 80 79 70 68 63 55 47 42 41 39 43 48 62 55 39 18 338 303 308 322 329 325 308 280 267 246
303 314 322 307 307 325 308 297 296 311 9 271 271 272 111 77 76 91 90 81 74 64 58 53 46 40 41 37 31 33 39 34 18 11 359 352 346 328 306 295 292 290 290 286
310 309 285 292 316 315 305 297 299 310 303 249 213 221 104 79 77 78 78 73 68 67 62 57 51 45 40 37 32 30 28 27 20 16 12 8 5 351 342 342 335 324 315 315
305 304 302 307 299 300 305 309 316 306 301 304 242 117 108 80 76 78 76 70 64 63 62 58 54 47 41 37 36 28 25 24 19 12 5 16 15 5 354 344 333 328 329 321
316 315 313 308 301 298 293 306 310 316 318 314 318 83 147 146 133 103 75 63 55 51 52 51 50 47 40 33 33 29 20 15 11 8 2 2 0 358 351 344 341 334 328 322
320 305 301 311 324 323 316 314 329 320 314 316 317 23 96 130 124 99 78 59 39 26 23 21 21 19 12 8 4 2 358 352 347 343 343 339 339 341 336 332 333 332 324 316
340 327 321 320 337 328 303 304 311 313 317 310 307 52 61 75 68 56 49 36 14 355 348 344 343 344 345 345 344 339 335 328 325 325 324 322 323 322 317 315 318 319 317 315
344 324 308 309 328 247 268 286 307 313 304 303 314 71 83 71 60 42 15 348 330 325 321 321 325 325 324 322 318 312 307 303 302 301 298 296 294 294 293 292 294 297 298 301
279 284 289 301 308 310 305 312 325 331 322 324 343 54 99 55 10 350 336 323 315 311 308 306 303 294 293 290 285 283 281 276 274 271 270 269 268 267 268 271 272 275 277 282
317 306 313 309 307 310 312 326 344 356 353 338 343 360 48 28 341 330 323 319 314 309 307 306 302 291 280 276 273 272 269 267 265 265 263 260 259 259 259 261 262 263 266 273
331 310 308 305 306 312 332 19 14 6 354 341 332 342 38 350 334 330 327 321 311 310 317 319 309 300 296 294 292 289 285 279 273 270 270 268 263 262 260 259 258 258 259 262
339 338 320 305 309 308 34 30 14 356 348 340 327 340 355 339 332 327 323 311 313 334 331 318 312 310 308 304 297 292 292 288 283 279 279 276 272 269 264 266 265 259 260 264
350 332 306 301 312 334 69 40 15 344 336 338 340 356 346 329 325 321 311 325 342 330 321 317 313 310 304 301 297 292 293 288 284 282 281 280 280 279 276 272 271 270 270 272
86 323 310 316 330 24 103 39 6 338 326 21 5 341 330 328 318 310 329 339 326 318 315 313 310 307 302 297 293 290 289 288 284 283 279 279 278 279 278 278 277 277 275 276
313 310 292 314 320 339 60 23 344 316 305 24 346 334 329 323 316 320 328 319 313 315 313 308 305 302 298 295 293 289 289 286 283 282 277 276 274 275 275 274 275 277 275 272
337 327 325 331 318 46 30 355 342 324 339 343 331 325 322 321 313 312 315 316 316 312 309 306 303 300 298 296 291 288 288 285 283 281 276 273 271 270 269 264 262 264 267 271
339 336 353 336 322 25 9 355 354 328 326 325 325 323 319 315 313 314 315 315 313 311 309 309 306 301 297 298 297 294 292 292 291 289 286 281 277 277 279 273 270 266 264 267
24 39 338 331 326 354 360 345 342 340 331 327 323 320 318 316 316 315 314 312 312 312 313 314 312 308 306 305 302 299 298 297 293 288 284 282 281 278 275 272 270 267 260 257
94 64 319 316 321 345 346 350 347 339 329 323 322 320 319 316 314 313 313 314 315 317 318 317 313 310 308 307 303 297 295 292 287 284 283 281 278 274 270 265 263 262 260 258
332 338 332 314 353 345 341 346 337 328 327 324 321 319 317 315 315 317 317 319 321 319 318 318 315 311 308 306 302 300 297 291 286 284 282 279 274 272 268 264 257 256 254 249
46 35 352 336 348 328 328 334 329 329 326 323 321 319 319 320 321 323 323 323 321 322 322 319 315 312 310 307 303 299 296 291 286 283 280 274 269 267 266 265 267 255 247 249